TimePST,TemperatureF,Dew PointF,Humidity,Sea Level PressureIn,VisibilityMPH,Wind Direction,Wind SpeedMPH,Gust SpeedMPH,PrecipitationIn,Events,Conditions,WindDirDegrees,DateUTC
12:54 AM,32.0,21.9,66,30.42,10.0,Calm,Calm,-,N/A,,Clear,0,2013-01-15 08:54:00
1:54 AM,30.9,23.0,72,30.45,10.0,SE,5.8,-,N/A,,Clear,140,2013-01-15 09:54:00
2:54 AM,33.1,23.0,66,30.46,10.0,ESE,4.6,-,N/A,,Clear,110,2013-01-15 10:54:00
3:54 AM,32.0,23.0,69,30.46,10.0,East,6.9,-,N/A,,Clear,90,2013-01-15 11:54:00
4:54 AM,33.1,23.0,66,30.45,10.0,East,5.8,-,N/A,,Clear,80,2013-01-15 12:54:00
5:54 AM,33.1,21.9,64,30.45,10.0,East,5.8,-,N/A,,Clear,100,2013-01-15 13:54:00
6:54 AM,30.0,21.0,69,30.46,10.0,Calm,Calm,-,N/A,,Clear,0,2013-01-15 14:54:00
7:54 AM,33.1,23.0,66,30.47,10.0,Calm,Calm,-,N/A,,Clear,0,2013-01-15 15:54:00
8:54 AM,37.9,24.1,57,30.48,10.0,Calm,Calm,-,N/A,,Clear,0,2013-01-15 16:54:00
9:54 AM,41.0,23.0,49,30.49,10.0,Calm,Calm,-,N/A,,Clear,0,2013-01-15 17:54:00
10:54 AM,46.9,24.1,41,30.47,10.0,NNW,4.6,-,N/A,,Clear,330,2013-01-15 18:54:00
11:54 AM,48.9,23.0,36,30.44,10.0,Variable,5.8,-,N/A,,Clear,0,2013-01-15 19:54:00
12:54 PM,52.0,24.1,34,30.41,10.0,WNW,4.6,-,N/A,,Clear,290,2013-01-15 20:54:00
1:54 PM,53.1,24.1,32,30.41,10.0,Calm,Calm,-,N/A,,Clear,0,2013-01-15 21:54:00
2:54 PM,53.1,23.0,31,30.40,10.0,West,4.6,-,N/A,,Clear,280,2013-01-15 22:54:00
3:54 PM,53.1,24.1,32,30.40,10.0,WSW,6.9,-,N/A,,Clear,250,2013-01-15 23:54:00
4:54 PM,51.1,24.1,35,30.41,10.0,West,4.6,-,N/A,,Clear,270,2013-01-16 00:54:00
5:54 PM,48.0,24.1,39,30.42,10.0,South,3.5,-,N/A,,Clear,180,2013-01-16 01:54:00
6:54 PM,43.0,25.0,49,30.43,10.0,Calm,Calm,-,N/A,,Clear,0,2013-01-16 02:54:00
7:54 PM,41.0,25.0,53,30.44,10.0,East,3.5,-,N/A,,Clear,90,2013-01-16 03:54:00
8:54 PM,37.0,25.0,62,30.44,9.0,East,4.6,-,N/A,,Clear,80,2013-01-16 04:54:00
9:54 PM,37.4,24.8,60,30.43,10.0,Calm,Calm,-,N/A,,Clear,0,2013-01-16 05:54:00
10:54 PM,37.9,25.0,60,30.43,10.0,Calm,Calm,-,N/A,,Clear,0,2013-01-16 06:54:00
11:54 PM,33.1,24.1,70,30.43,10.0,ENE,4.6,-,N/A,,Clear,70,2013-01-16 07:54:00